| time (UTC) | temp F | wind direction | speed MPH | gust MPH | rain 1hr in | rain 24hr in | rain mn in | humidity % | barometer mb |
| 20260902205931 | 80 | 233 | 0.0 | 0.0 | 0.00 | 0.00 | 0.00 | 4 | |
| 20260902205433 | 80 | 174 | 4.0 | 2.0 | 0.00 | 0.00 | 0.00 | 4 | |
| 20260902204935 | 80 | 195 | 3.0 | 7.0 | 0.00 | 0.00 | 0.00 | 4 | |
| 20260902204438 | 79 | 217 | 0.0 | 4.0 | 0.00 | 0.00 | 0.00 | 4 | |
| 20260902203936 | 79 | 198 | 1.0 | 0.0 | 0.00 | 0.00 | 0.00 | 4 | |
| 20260902203439 | 79 | 239 | 2.0 | 9.0 | 0.00 | 0.00 | 0.00 | 4 | |
| 20260902202941 | 79 | 205 | 2.0 | 4.0 | 0.00 | 0.00 | 0.00 | 4 | |
| 20260902202443 | 79 | 165 | 0.0 | 0.0 | 0.00 | 0.00 | 0.00 | 5 | |
| 20260902201945 | 79 | 181 | 3.0 | 0.0 | 0.00 | 0.00 | 0.00 | 5 | |
| 20260902201448 | 79 | 233 | 1.0 | 5.0 | 0.00 | 0.00 | 0.00 | 4 | |
| 20260902200947 | 79 | 250 | 7.0 | 0.0 | 0.00 | 0.00 | 0.00 | 4 | |
| 20260902200449 | 78 | 255 | 0.0 | 0.0 | 0.00 | 0.00 | 0.00 | 4 | |
| 20260902195951 | 78 | 166 | 0.0 | 0.0 | 0.00 | 0.00 | 0.00 | 5 | |
| 20260902195454 | 78 | 176 | 0.0 | 0.0 | 0.00 | 0.00 | 0.00 | 5 | |
| 20260902194956 | 77 | 203 | 1.0 | 0.0 | 0.00 | 0.00 | 0.00 | 4 | |
| 20260902194458 | 77 | 200 | 1.0 | 0.0 | 0.00 | 0.00 | 0.00 | 5 | |
| 20260902193957 | 77 | 210 | 7.0 | 7.0 | 0.00 | 0.00 | 0.00 | 4 | |
| 20260902193459 | 77 | 191 | 5.0 | 0.0 | 0.00 | 0.00 | 0.00 | 5 | |
| 20260902193002 | 77 | 205 | 4.0 | 8.0 | 0.00 | 0.00 | 0.00 | 4 | |
| 20260902192505 | 77 | 170 | 0.0 | 0.0 | 0.00 | 0.00 | 0.00 | 5 | |
| 20260902192006 | 77 | 176 | 2.0 | 0.0 | 0.00 | 0.00 | 0.00 | 5 | |
| 20260902191509 | 77 | 228 | 1.0 | 0.0 | 0.00 | 0.00 | 0.00 | 5 | |
| 20260902191008 | 77 | 228 | 0.0 | 0.0 | 0.00 | 0.00 | 0.00 | 4 | |
| 20260902190510 | 77 | 191 | 3.0 | 9.0 | 0.00 | 0.00 | 0.00 | 4 | |
| 20260902190012 | 77 | 191 | 0.0 | 0.0 | 0.00 | 0.00 | 0.00 | 4 | |
| 20260902185514 | 76 | 183 | 2.0 | 0.0 | 0.00 | 0.00 | 0.00 | 4 | |
| 20260902185017 | 76 | 207 | 10.0 | 3.0 | 0.00 | 0.00 | 0.00 | 4 | |
| 20260902184623 | 76 | 205 | 3.0 | 0.0 | 0.00 | 0.00 | 0.00 | 4 | |
| 20260902184519 | 76 | 205 | 3.0 | 0.0 | 0.00 | 0.00 | 0.00 | 4 | |
| 20260902184018 | 76 | 225 | 3.0 | 7.0 | 0.00 | 0.00 | 0.00 | 4 | |
| 20260902183520 | 76 | 231 | 1.0 | 0.0 | 0.00 | 0.00 | 0.00 | 4 | |
| 20260902183023 | 76 | 214 | 4.0 | 3.0 | 0.00 | 0.00 | 0.00 | 4 | |
| 20260902182720 | 76 | 215 | 4.0 | 8.0 | 0.00 | 0.00 | 0.00 | 4 | |
| 20260902182525 | 76 | 215 | 4.0 | 8.0 | 0.00 | 0.00 | 0.00 | 4 | |
| 20260902182027 | 75 | 233 | 4.0 | 7.0 | 0.00 | 0.00 | 0.00 | 3 | |
| 20260902181529 | 75 | 204 | 2.0 | 0.0 | 0.00 | 0.00 | 0.00 | 4 | |
| 20260902181029 | 75 | 207 | 12.0 | 12.0 | 0.00 | 0.00 | 0.00 | 4 | |
| 20260902180531 | 75 | 193 | 16.0 | 12.0 | 0.00 | 0.00 | 0.00 | 4 | |
| 20260902180033 | 75 | 193 | 9.0 | 10.0 | 0.00 | 0.00 | 0.00 | 4 | |
| 20260902175535 | 75 | 191 | 2.0 | 18.0 | 0.00 | 0.00 | 0.00 | 4 | |
| 20260902175038 | 74 | 153 | 3.0 | 2.0 | 0.00 | 0.00 | 0.00 | 4 | |
| 20260902174540 | 75 | 169 | 1.0 | 4.0 | 0.00 | 0.00 | 0.00 | 5 | |
| 20260902174039 | 75 | 80 | 6.0 | 4.0 | 0.00 | 0.00 | 0.00 | 5 | |
| 20260902173541 | 75 | 219 | 1.0 | 12.0 | 0.00 | 0.00 | 0.00 | 5 | |
| 20260902173044 | 75 | 204 | 6.0 | 12.0 | 0.00 | 0.00 | 0.00 | 5 | |
| 20260902172546 | 75 | 203 | 10.0 | 6.0 | 0.00 | 0.00 | 0.00 | 5 | |
| 20260902172048 | 75 | 224 | 6.0 | 6.0 | 0.00 | 0.00 | 0.00 | 5 | |
| 20260902171645 | 75 | 205 | 4.0 | 10.0 | 0.00 | 0.00 | 0.00 | 5 | |
| 20260902171550 | 75 | 205 | 4.0 | 10.0 | 0.00 | 0.00 | 0.00 | 5 | |
| 20260902170910 | 74 | 205 | 12.0 | 7.0 | 0.00 | 0.00 | 0.00 | 5 | |
| 20260902170858 | 74 | 221 | 5.0 | 7.0 | 0.00 | 0.00 | 0.00 | 4 | |
| 20260902170552 | 74 | 221 | 5.0 | 7.0 | 0.00 | 0.00 | 0.00 | 4 | |
| 20260902170054 | 74 | 205 | 12.0 | 7.0 | 0.00 | 0.00 | 0.00 | 5 | |
| 20260902165556 | 74 | 170 | 7.0 | 15.0 | 0.00 | 0.00 | 0.00 | 5 | |
| 20260902165059 | 74 | 215 | 3.0 | 15.0 | 0.00 | 0.00 | 0.00 | 5 | |
| 20260902164601 | 74 | 211 | 11.0 | 15.0 | 0.00 | 0.00 | 0.00 | 5 | |
| 20260902164100 | 73 | 205 | 8.0 | 10.0 | 0.00 | 0.00 | 0.00 | 5 | |
| 20260902163105 | 73 | 257 | 0.0 | 0.0 | 0.00 | 0.00 | 0.00 | 4 | |
| 20260902162902 | 73 | 233 | 0.0 | 4.0 | 0.00 | 0.00 | 0.00 | 5 | |
| 20260902162607 | 73 | 205 | 0.0 | 0.0 | 0.00 | 0.00 | 0.00 | 5 | |
| 20260902162109 | 73 | 233 | 0.0 | 4.0 | 0.00 | 0.00 | 0.00 | 5 | |
| 20260902161612 | 72 | 235 | 0.0 | 0.0 | 0.00 | 0.00 | 0.00 | 5 | |
| 20260902161111 | 72 | 235 | 0.0 | 0.0 | 0.00 | 0.00 | 0.00 | 5 | |
| 20260902160115 | 71 | 235 | 0.0 | 0.0 | 0.00 | 0.00 | 0.00 | 5 | |
| 20260902155618 | 71 | 235 | 0.0 | 0.0 | 0.00 | 0.00 | 0.00 | 6 | |
| 20260902155506 | 70 | 235 | 0.0 | 0.0 | 0.00 | 0.00 | 0.00 | 6 | |
| 20260902155120 | 70 | 235 | 0.0 | 0.0 | 0.00 | 0.00 | 0.00 | 6 | |
| 20260902154800 | 69 | 231 | 0.0 | 0.0 | 0.00 | 0.00 | 0.00 | 6 | |
| 20260902154750 | 70 | 235 | 0.0 | 0.0 | 0.00 | 0.00 | 0.00 | 6 | |
| 20260902154622 | 70 | 235 | 0.0 | 0.0 | 0.00 | 0.00 | 0.00 | 6 | |
| 20260902154121 | 69 | 231 | 0.0 | 0.0 | 0.00 | 0.00 | 0.00 | 6 | |
| 20260902152628 | 67 | 231 | 0.0 | 0.0 | 0.00 | 0.00 | 0.00 | 8 | |
| 20260902152130 | 67 | 231 | 0.0 | 0.0 | 0.00 | 0.00 | 0.00 | 9 | |
| 20260902151633 | 66 | 231 | 0.0 | 0.0 | 0.00 | 0.00 | 0.00 | 10 | |
| 20260902151131 | 65 | 231 | 0.0 | 0.0 | 0.00 | 0.00 | 0.00 | 11 | |
| 20260902150633 | 65 | 231 | 0.0 | 0.0 | 0.00 | 0.00 | 0.00 | 12 | |
| 20260902150135 | 64 | 231 | 0.0 | 0.0 | 0.00 | 0.00 | 0.00 | 13 | |
| 20260902145638 | 63 | 231 | 0.0 | 0.0 | 0.00 | 0.00 | 0.00 | 14 | |
| 20260902145140 | 62 | 231 | 0.0 | 0.0 | 0.00 | 0.00 | 0.00 | 15 | |
| 20260902144642 | 62 | 231 | 0.0 | 0.0 | 0.00 | 0.00 | 0.00 | 15 | |
| 20260902144141 | 61 | 231 | 0.0 | 0.0 | 0.00 | 0.00 | 0.00 | 17 | |
| 20260902143644 | 60 | 231 | 0.0 | 0.0 | 0.00 | 0.00 | 0.00 | 19 | |
| 20260902143146 | 60 | 231 | 0.0 | 0.0 | 0.00 | 0.00 | 0.00 | 20 | |
| 20260902142647 | 59 | 231 | 0.0 | 0.0 | 0.00 | 0.00 | 0.00 | 21 | |
| 20260902142150 | 58 | 231 | 0.0 | 0.0 | 0.00 | 0.00 | 0.00 | 22 | |
| 20260902141652 | 58 | 170 | 0.0 | 0.0 | 0.00 | 0.00 | 0.00 | 24 | |
| 20260902141151 | 57 | 170 | 0.0 | 0.0 | 0.00 | 0.00 | 0.00 | 24 | |
| 20260902140653 | 57 | 170 | 0.0 | 0.0 | 0.00 | 0.00 | 0.00 | 24 | |
| 20260902140303 | 57 | 170 | 0.0 | 0.0 | 0.00 | 0.00 | 0.00 | 24 | |
| 20260902140155 | 57 | 170 | 0.0 | 0.0 | 0.00 | 0.00 | 0.00 | 24 | |
| 20260902140142 | 56 | 170 | 0.0 | 0.0 | 0.00 | 0.00 | 0.00 | 24 | |
| 20260902135658 | 56 | 170 | 0.0 | 0.0 | 0.00 | 0.00 | 0.00 | 24 | |
| 20260902135200 | 56 | 170 | 0.0 | 0.0 | 0.00 | 0.00 | 0.00 | 25 | |
| 20260902134703 | 56 | 170 | 0.0 | 0.0 | 0.00 | 0.00 | 0.00 | 25 | |
| 20260902134201 | 56 | 170 | 0.0 | 0.0 | 0.00 | 0.00 | 0.00 | 25 | |
| 20260902133704 | 56 | 207 | 0.0 | 0.0 | 0.00 | 0.00 | 0.00 | 25 | |
| 20260902133206 | 56 | 207 | 1.0 | 0.0 | 0.00 | 0.00 | 0.00 | 25 | |
| 20260902132708 | 56 | 174 | 1.0 | 0.0 | 0.00 | 0.00 | 0.00 | 26 | |
| 20260902132211 | 55 | 166 | 1.0 | 0.0 | 0.00 | 0.00 | 0.00 | 26 | |
| 20260902131713 | 55 | 159 | 0.0 | 0.0 | 0.00 | 0.00 | 0.00 | 26 | |
| 20260902131212 | 55 | 159 | 0.0 | 0.0 | 0.00 | 0.00 | 0.00 | 26 | |
| 20260902130714 | 56 | 221 | 1.0 | 0.0 | 0.00 | 0.00 | 0.00 | 27 | |
| 20260902130217 | 56 | 222 | 0.0 | 0.0 | 0.00 | 0.00 | 0.00 | 27 | |
| 20260902125719 | 56 | 222 | 0.0 | 0.0 | 0.00 | 0.00 | 0.00 | 26 | |
| 20260902125221 | 56 | 188 | 0.0 | 0.0 | 0.00 | 0.00 | 0.00 | 25 | |
| 20260902124723 | 57 | 249 | 0.0 | 0.0 | 0.00 | 0.00 | 0.00 | 22 | |
| 20260902124222 | 57 | 210 | 1.0 | 0.0 | 0.00 | 0.00 | 0.00 | 21 | |
| 20260902123725 | 57 | 98 | 0.0 | 0.0 | 0.00 | 0.00 | 0.00 | 19 | |
| 20260902123227 | 58 | 98 | 0.0 | 0.0 | 0.00 | 0.00 | 0.00 | 17 | |
| 20260902122729 | 59 | 98 | 0.0 | 0.0 | 0.00 | 0.00 | 0.00 | 16 | |
| 20260902122232 | 59 | 98 | 0.0 | 0.0 | 0.00 | 0.00 | 0.00 | 15 | |
| 20260902121735 | 0 | 98 | 0.0 | 0.0 | 0.00 | 0.00 | 0.00 | 15 | |
| 20260902121233 | 60 | 98 | 0.0 | 0.0 | 0.00 | 0.00 | 0.00 | 14 | |
| 20260902120735 | 60 | 179 | 0.0 | 0.0 | 0.00 | 0.00 | 0.00 | 14 | |
| 20260902120238 | 60 | 179 | 3.0 | 0.0 | 0.00 | 0.00 | 0.00 | 14 | |
| 20260902115740 | 60 | 143 | 0.0 | 3.0 | 0.00 | 0.00 | 0.00 | 13 | |
| 20260902115242 | 60 | 184 | 9.0 | 14.0 | 0.00 | 0.00 | 0.00 | 13 | |
| 20260902114837 | 60 | 184 | 8.0 | 9.0 | 0.00 | 0.00 | 0.00 | 14 | |
| 20260902114745 | 0 | 184 | 8.0 | 9.0 | 0.00 | 0.00 | 0.00 | 14 | |
| 20260902114244 | 60 | 177 | 2.0 | 0.0 | 0.00 | 0.00 | 0.00 | 15 | |
| 20260902113746 | 60 | 166 | 2.0 | 13.0 | 0.00 | 0.00 | 0.00 | 15 | |
| 20260902113248 | 60 | 193 | 7.0 | 0.0 | 0.00 | 0.00 | 0.00 | 14 | |
| 20260902112750 | 60 | 118 | 1.0 | 2.0 | 0.00 | 0.00 | 0.00 | 14 | |
| 20260902112253 | 60 | 174 | 0.0 | 0.0 | 0.00 | 0.00 | 0.00 | 12 | |
| 20260902111755 | 59 | 260 | 1.0 | 0.0 | 0.00 | 0.00 | 0.00 | 12 | |
| 20260902111254 | 58 | 150 | 4.0 | 3.0 | 0.00 | 0.00 | 0.00 | 13 | |
| 20260902110756 | 58 | 172 | 1.0 | 2.0 | 0.00 | 0.00 | 0.00 | 15 | |
| 20260902110300 | 57 | 218 | 2.0 | 0.0 | 0.00 | 0.00 | 0.00 | 17 | |
| 20260902105801 | 57 | 153 | 0.0 | 0.0 | 0.00 | 0.00 | 0.00 | 20 | |
| 20260902105306 | 57 | 153 | 1.0 | 0.0 | 0.00 | 0.00 | 0.00 | 21 | |
| 20260902104806 | 57 | 174 | 1.0 | 0.0 | 0.00 | 0.00 | 0.00 | 21 | |
| 20260902104305 | 57 | 174 | 1.0 | 0.0 | 0.00 | 0.00 | 0.00 | 21 | |
| 20260902103807 | 57 | 195 | 2.0 | 3.0 | 0.00 | 0.00 | 0.00 | 21 | |
| 20260902103309 | 57 | 165 | 2.0 | 2.0 | 0.00 | 0.00 | 0.00 | 20 | |
| 20260902102811 | 57 | 250 | 1.0 | 6.0 | 0.00 | 0.00 | 0.00 | 20 | |
| 20260902102314 | 57 | 203 | 1.0 | 3.0 | 0.00 | 0.00 | 0.00 | 19 | |
| 20260902101816 | 57 | 256 | 1.0 | 0.0 | 0.00 | 0.00 | 0.00 | 18 | |
| 20260902101315 | 57 | 297 | 0.0 | 0.0 | 0.00 | 0.00 | 0.00 | 17 | |
| 20260902100817 | 57 | 236 | 1.0 | 0.0 | 0.00 | 0.00 | 0.00 | 17 | |
| 20260902100320 | 57 | 253 | 1.0 | 0.0 | 0.00 | 0.00 | 0.00 | 17 | |
| 20260902095823 | 57 | 235 | 0.0 | 0.0 | 0.00 | 0.00 | 0.00 | 16 | |
| 20260902095323 | 58 | 222 | 0.0 | 2.0 | 0.00 | 0.00 | 0.00 | 16 | |
| 20260902094826 | 58 | 186 | 1.0 | 0.0 | 0.00 | 0.00 | 0.00 | 15 | |
| 20260902094325 | 58 | 229 | 0.0 | 0.0 | 0.00 | 0.00 | 0.00 | 15 | |
| 20260902093827 | 58 | 229 | 0.0 | 0.0 | 0.00 | 0.00 | 0.00 | 15 | |
| 20260902093329 | 58 | 180 | 1.0 | 0.0 | 0.00 | 0.00 | 0.00 | 14 | |
| 20260902092831 | 59 | 193 | 1.0 | 0.0 | 0.00 | 0.00 | 0.00 | 13 | |
| 20260902092334 | 59 | 238 | 0.0 | 0.0 | 0.00 | 0.00 | 0.00 | 12 | |
| 20260902091836 | 59 | 238 | 1.0 | 0.0 | 0.00 | 0.00 | 0.00 | 12 | |
| 20260902091335 | 60 | 210 | 0.0 | 0.0 | 0.00 | 0.00 | 0.00 | 11 | |
| 20260902090837 | 60 | 153 | 2.0 | 1.0 | 0.00 | 0.00 | 0.00 | 12 | |
| 20260902090339 | 60 | 167 | 3.0 | 0.0 | 0.00 | 0.00 | 0.00 | 11 | |
| 20260902085841 | 61 | 174 | 2.0 | 2.0 | 0.00 | 0.00 | 0.00 | 12 | |
| 20260902085343 | 61 | 180 | 4.0 | 2.0 | 0.00 | 0.00 | 0.00 | 13 | |
| 20260902084846 | 61 | 183 | 14.0 | 13.0 | 0.00 | 0.00 | 0.00 | 14 | |
| 20260902084345 | 61 | 194 | 17.0 | 18.0 | 0.00 | 0.00 | 0.00 | 13 | |
| 20260902083847 | 61 | 167 | 16.0 | 16.0 | 0.00 | 0.00 | 0.00 | 13 | |
| 20260902083350 | 61 | 166 | 14.0 | 20.0 | 0.00 | 0.00 | 0.00 | 13 | |
| 20260902082852 | 61 | 184 | 15.0 | 16.0 | 0.00 | 0.00 | 0.00 | 13 | |
| 20260902082354 | 61 | 180 | 17.0 | 17.0 | 0.00 | 0.00 | 0.00 | 13 | |
| 20260902081856 | 61 | 187 | 11.0 | 15.0 | 0.00 | 0.00 | 0.00 | 13 | |
| 20260902081355 | 61 | 183 | 3.0 | 3.0 | 0.00 | 0.00 | 0.00 | 12 | |
| 20260902080857 | 61 | 177 | 1.0 | 0.0 | 0.00 | 0.00 | 0.00 | 12 | |
| 20260902080400 | 61 | 176 | 3.0 | 13.0 | 0.00 | 0.00 | 0.00 | 12 | |
| 20260902075902 | 61 | 153 | 0.0 | 0.0 | 0.00 | 0.00 | 0.00 | 12 | |
| 20260902075404 | 61 | 146 | 0.0 | 0.0 | 0.00 | 0.00 | 0.00 | 12 | |
| 20260902074907 | 61 | 146 | 0.0 | 0.0 | 0.00 | 0.00 | 0.00 | 12 | |
| 20260902074406 | 62 | 146 | 0.0 | 0.0 | 0.00 | 0.00 | 0.00 | 12 | |
| 20260902073908 | 62 | 174 | 11.0 | 12.0 | 0.00 | 0.00 | 0.00 | 12 | |
| 20260902073410 | 62 | 172 | 12.0 | 15.0 | 0.00 | 0.00 | 0.00 | 13 | |
| 20260902072913 | 62 | 177 | 12.0 | 13.0 | 0.00 | 0.00 | 0.00 | 13 | |
| 20260902072416 | 62 | 191 | 11.0 | 15.0 | 0.00 | 0.00 | 0.00 | 13 | |
| 20260902071917 | 62 | 159 | 15.0 | 12.0 | 0.00 | 0.00 | 0.00 | 13 | |
| 20260902071417 | 62 | 166 | 13.0 | 11.0 | 0.00 | 0.00 | 0.00 | 13 | |
| 20260902071153 | 62 | 179 | 14.0 | 15.0 | 0.00 | 0.00 | 0.00 | 12 | |
| 20260902070919 | 62 | 179 | 14.0 | 15.0 | 0.00 | 0.00 | 0.00 | 12 | |
| 20260902070421 | 62 | 166 | 15.0 | 13.0 | 0.00 | 0.00 | 0.00 | 12 | |
| 20260902065923 | 62 | 186 | 13.0 | 13.0 | 0.00 | 0.00 | 0.00 | 13 | |
| 20260902065425 | 62 | 190 | 13.0 | 13.0 | 0.00 | 0.00 | 0.00 | 13 | |
| 20260902064928 | 62 | 177 | 13.0 | 10.0 | 0.00 | 0.00 | 0.00 | 14 | |
| 20260902064427 | 62 | 167 | 12.0 | 15.0 | 0.00 | 0.00 | 0.00 | 15 | |
| 20260902063929 | 61 | 173 | 9.0 | 6.0 | 0.00 | 0.00 | 0.00 | 16 | |
| 20260902063431 | 62 | 135 | 5.0 | 0.0 | 0.00 | 0.00 | 0.00 | 17 | |
| 20260902062934 | 62 | 105 | 3.0 | 3.0 | 0.00 | 0.00 | 0.00 | 18 | |
| 20260902062436 | 62 | 167 | 5.0 | 7.0 | 0.00 | 0.00 | 0.00 | 19 | |
| 20260902061938 | 62 | 166 | 9.0 | 8.0 | 0.00 | 0.00 | 0.00 | 20 | |
| 20260902060940 | 62 | 159 | 8.0 | 6.0 | 0.00 | 0.00 | 0.00 | 22 | |
| 20260902060442 | 62 | 152 | 10.0 | 10.0 | 0.00 | 0.00 | 0.00 | 24 | |
| 20260902055944 | 63 | 156 | 12.0 | 14.0 | 0.00 | 0.00 | 0.00 | 25 | |
| 20260902055446 | 63 | 166 | 12.0 | 13.0 | 0.00 | 0.00 | 0.00 | 24 | |
| 20260902054949 | 63 | 167 | 14.0 | 7.0 | 0.00 | 0.00 | 0.00 | 24 | |
| 20260902054448 | 63 | 153 | 8.0 | 14.0 | 0.00 | 0.00 | 0.00 | 23 | |
| 20260902053950 | 63 | 158 | 9.0 | 15.0 | 0.00 | 0.00 | 0.00 | 22 | |
| 20260902053452 | 63 | 173 | 12.0 | 11.0 | 0.00 | 0.00 | 0.00 | 20 | |
| 20260902052955 | 63 | 179 | 10.0 | 6.0 | 0.00 | 0.00 | 0.00 | 18 | |
| 20260902052457 | 64 | 177 | 10.0 | 12.0 | 0.00 | 0.00 | 0.00 | 18 | |
| 20260902051959 | 64 | 172 | 11.0 | 10.0 | 0.00 | 0.00 | 0.00 | 17 | |
| 20260902051459 | 64 | 183 | 12.0 | 9.0 | 0.00 | 0.00 | 0.00 | 18 | |
| 20260902051001 | 64 | 172 | 11.0 | 7.0 | 0.00 | 0.00 | 0.00 | 18 | |
| 20260902050503 | 64 | 163 | 12.0 | 13.0 | 0.00 | 0.00 | 0.00 | 18 | |
| 20260902045507 | 64 | 166 | 15.0 | 15.0 | 0.00 | 0.00 | 0.00 | 20 | |
| 20260902044509 | 63 | 172 | 13.0 | 15.0 | 0.00 | 0.00 | 0.00 | 22 | |
| 20260902044011 | 63 | 142 | 14.0 | 14.0 | 0.00 | 0.00 | 0.00 | 22 | |
| 20260902043513 | 63 | 160 | 12.0 | 14.0 | 0.00 | 0.00 | 0.00 | 23 | |
| 20260902043016 | 63 | 163 | 11.0 | 8.0 | 0.00 | 0.00 | 0.00 | 24 | |
| 20260902042518 | 63 | 150 | 12.0 | 13.0 | 0.00 | 0.00 | 0.00 | 26 | |
| 20260902042020 | 63 | 165 | 12.0 | 12.0 | 0.00 | 0.00 | 0.00 | 27 | |
| 20260902041519 | 63 | 158 | 8.0 | 11.0 | 0.00 | 0.00 | 0.00 | 27 | |
| 20260902041022 | 63 | 174 | 11.0 | 8.0 | 0.00 | 0.00 | 0.00 | 28 | |
| 20260902040524 | 63 | 173 | 14.0 | 9.0 | 0.00 | 0.00 | 0.00 | 28 | |
| 20260902040026 | 63 | 166 | 13.0 | 16.0 | 0.00 | 0.00 | 0.00 | 29 | |
| 20260902035528 | 63 | 170 | 13.0 | 13.0 | 0.00 | 0.00 | 0.00 | 29 | |
| 20260902035031 | 64 | 167 | 11.0 | 14.0 | 0.00 | 0.00 | 0.00 | 29 | |
| 20260902034530 | 64 | 158 | 15.0 | 13.0 | 0.00 | 0.00 | 0.00 | 29 | |
| 20260902033534 | 64 | 183 | 16.0 | 10.0 | 0.00 | 0.00 | 0.00 | 29 | |
| 20260902033037 | 64 | 169 | 15.0 | 20.0 | 0.00 | 0.00 | 0.00 | 28 | |
| 20260902032539 | 64 | 173 | 13.0 | 9.0 | 0.00 | 0.00 | 0.00 | 28 | |
| 20260902032041 | 64 | 166 | 13.0 | 14.0 | 0.00 | 0.00 | 0.00 | 28 | |
| 20260902031540 | 64 | 160 | 12.0 | 12.0 | 0.00 | 0.00 | 0.00 | 28 | |
| 20260902031042 | 65 | 170 | 16.0 | 11.0 | 0.00 | 0.00 | 0.00 | 27 | |
| 20260902030545 | 65 | 167 | 15.0 | 12.0 | 0.00 | 0.00 | 0.00 | 26 | |
| 20260902030047 | 65 | 156 | 12.0 | 17.0 | 0.00 | 0.00 | 0.00 | 25 | |
| 20260902025550 | 65 | 149 | 13.0 | 12.0 | 0.00 | 0.00 | 0.00 | 24 | |
| 20260902025052 | 66 | 156 | 16.0 | 11.0 | 0.00 | 0.00 | 0.00 | 25 | |
| 20260902024551 | 66 | 165 | 18.0 | 19.0 | 0.00 | 0.00 | 0.00 | 25 | |
| 20260902024053 | 66 | 155 | 14.0 | 13.0 | 0.00 | 0.00 | 0.00 | 24 | |
| 20260902023555 | 66 | 169 | 14.0 | 13.0 | 0.00 | 0.00 | 0.00 | 24 | |
| 20260902023057 | 67 | 165 | 15.0 | 14.0 | 0.00 | 0.00 | 0.00 | 23 | |
| 20260902022600 | 67 | 177 | 14.0 | 11.0 | 0.00 | 0.00 | 0.00 | 22 | |
| 20260902022102 | 68 | 159 | 11.0 | 12.0 | 0.00 | 0.00 | 0.00 | 20 | |
| 20260902021602 | 68 | 149 | 8.0 | 9.0 | 0.00 | 0.00 | 0.00 | 19 | |
| 20260902021103 | 68 | 165 | 11.0 | 11.0 | 0.00 | 0.00 | 0.00 | 18 | |
| 20260902020606 | 69 | 179 | 11.0 | 7.0 | 0.00 | 0.00 | 0.00 | 17 | |
| 20260902020108 | 69 | 167 | 8.0 | 6.0 | 0.00 | 0.00 | 0.00 | 17 | |
| 20260902015610 | 70 | 166 | 12.0 | 9.0 | 0.00 | 0.00 | 0.00 | 16 | |
| 20260902015112 | 70 | 129 | 12.0 | 9.0 | 0.00 | 0.00 | 0.00 | 15 | |
| 20260902014611 | 71 | 160 | 7.0 | 0.0 | 0.00 | 0.00 | 0.00 | 14 | |
| 20260902014114 | 71 | 114 | 7.0 | 6.0 | 0.00 | 0.00 | 0.00 | 13 | |
| 20260902013616 | 72 | 138 | 8.0 | 5.0 | 0.00 | 0.00 | 0.00 | 13 | |
| 20260902013118 | 72 | 134 | 8.0 | 9.0 | 0.00 | 0.00 | 0.00 | 11 | |
| 20260902012620 | 73 | 162 | 9.0 | 9.0 | 0.00 | 0.00 | 0.00 | 6 | |
| 20260902012123 | 73 | 146 | 11.0 | 13.0 | 0.00 | 0.00 | 0.00 | 10 | |
| 20260902011622 | 74 | 174 | 8.0 | 10.0 | 0.00 | 0.00 | 0.00 | 8 | |
| 20260902011126 | 74 | 149 | 13.0 | 18.0 | 0.00 | 0.00 | 0.00 | 6 | |
| 20260902010626 | 75 | 155 | 6.0 | 0.0 | 0.00 | 0.00 | 0.00 | 5 | |
| 20260902010129 | 75 | 191 | 11.0 | 16.0 | 0.00 | 0.00 | 0.00 | 5 | |
| 20260902005631 | 75 | 172 | 18.0 | 12.0 | 0.00 | 0.00 | 0.00 | 5 | |
| 20260902005133 | 75 | 169 | 12.0 | 10.0 | 0.00 | 0.00 | 0.00 | 5 | |
| 20260902004632 | 76 | 170 | 13.0 | 17.0 | 0.00 | 0.00 | 0.00 | 5 | |
| 20260902004134 | 76 | 176 | 11.0 | 8.0 | 0.00 | 0.00 | 0.00 | 5 | |
| 20260902003637 | 76 | 172 | 14.0 | 20.0 | 0.00 | 0.00 | 0.00 | 5 | |
| 20260902003139 | 76 | 158 | 15.0 | 17.0 | 0.00 | 0.00 | 0.00 | 4 | |
| 20260902002718 | 77 | 187 | 11.0 | 15.0 | 0.00 | 0.00 | 0.00 | 4 | |
| 20260902002641 | 77 | 187 | 11.0 | 15.0 | 0.00 | 0.00 | 0.00 | 4 | |
| 20260902002145 | 77 | 195 | 21.0 | 14.0 | 0.00 | 0.00 | 0.00 | 4 | |
| 20260902001643 | 77 | 222 | 20.0 | 16.0 | 0.00 | 0.00 | 0.00 | 4 | |
| 20260902001145 | 77 | 191 | 21.0 | 17.0 | 0.00 | 0.00 | 0.00 | 4 | |
| 20260902000647 | 77 | 190 | 22.0 | 24.0 | 0.00 | 0.00 | 0.00 | 4 | |
| 20260902000149 | 77 | 193 | 17.0 | 22.0 | 0.00 | 0.00 | 0.00 | 4 | |
| 20260901235652 | 77 | 179 | 21.0 | 18.0 | 0.00 | 0.00 | 0.00 | 4 | |
| 20260901235154 | 77 | 183 | 21.0 | 22.0 | 0.00 | 0.00 | 0.00 | 4 | |
| 20260901234155 | 77 | 176 | 24.0 | 23.0 | 0.00 | 0.00 | 0.00 | 5 | |
| 20260901233657 | 77 | 191 | 25.0 | 22.0 | 0.00 | 0.00 | 0.00 | 5 | |
| 20260901233200 | 77 | 181 | 14.0 | 17.0 | 0.00 | 0.00 | 0.00 | 5 | |
| 20260901232702 | 77 | 190 | 20.0 | 25.0 | 0.00 | 0.00 | 0.00 | 5 | |
| 20260901232204 | 77 | 179 | 22.0 | 23.0 | 0.00 | 0.00 | 0.00 | 5 | |
| 20260901231704 | 77 | 176 | 24.0 | 28.0 | 0.00 | 0.00 | 0.00 | 5 | |
| 20260901231205 | 77 | 186 | 19.0 | 27.0 | 0.00 | 0.00 | 0.00 | 5 | |
| 20260901230708 | 78 | 173 | 23.0 | 19.0 | 0.00 | 0.00 | 0.00 | 5 | |
| 20260901230211 | 78 | 204 | 22.0 | 21.0 | 0.00 | 0.00 | 0.00 | 5 | |
| 20260901225712 | 78 | 198 | 22.0 | 11.0 | 0.00 | 0.00 | 0.00 | 5 | |
| 20260901225214 | 78 | 165 | 22.0 | 21.0 | 0.00 | 0.00 | 0.00 | 5 | |
| 20260901224714 | 77 | 156 | 21.0 | 22.0 | 0.00 | 0.00 | 0.00 | 6 | |
| 20260901224216 | 78 | 191 | 20.0 | 23.0 | 0.00 | 0.00 | 0.00 | 5 | |
| 20260901223718 | 78 | 153 | 19.0 | 22.0 | 0.00 | 0.00 | 0.00 | 5 | |
| 20260901223220 | 78 | 195 | 25.0 | 21.0 | 0.00 | 0.00 | 0.00 | 5 | |
| 20260901222722 | 78 | 197 | 19.0 | 25.0 | 0.00 | 0.00 | 0.00 | 5 | |
| 20260901222225 | 78 | 186 | 24.0 | 19.0 | 0.00 | 0.00 | 0.00 | 5 | |
| 20260901221724 | 78 | 198 | 18.0 | 19.0 | 0.00 | 0.00 | 0.00 | 5 | |
| 20260901221226 | 78 | 191 | 21.0 | 22.0 | 0.00 | 0.00 | 0.00 | 5 | |
| 20260901220728 | 78 | 183 | 16.0 | 17.0 | 0.00 | 0.00 | 0.00 | 5 | |
| 20260901220231 | 78 | 197 | 24.0 | 29.0 | 0.00 | 0.00 | 0.00 | 5 | |
| 20260901215733 | 78 | 183 | 17.0 | 19.0 | 0.00 | 0.00 | 0.00 | 5 | |
| 20260901215235 | 78 | 184 | 19.0 | 15.0 | 0.00 | 0.00 | 0.00 | 5 | |
| 20260901214734 | 78 | 170 | 19.0 | 2.0 | 0.00 | 0.00 | 0.00 | 5 | |
| 20260901214236 | 78 | 211 | 17.0 | 14.0 | 0.00 | 0.00 | 0.00 | 5 | |
| 20260901213739 | 78 | 201 | 23.0 | 21.0 | 0.00 | 0.00 | 0.00 | 5 | |
| 20260901213401 | 78 | 176 | 24.0 | 25.0 | 0.00 | 0.00 | 0.00 | 5 | |
| 20260901213241 | 78 | 176 | 24.0 | 25.0 | 0.00 | 0.00 | 0.00 | 5 | |
| 20260901212743 | 79 | 167 | 20.0 | 27.0 | 0.00 | 0.00 | 0.00 | 5 | |
| 20260901212245 | 79 | 205 | 20.0 | 24.0 | 0.00 | 0.00 | 0.00 | 5 | |
| 20260901211744 | 78 | 193 | 17.0 | 26.0 | 0.00 | 0.00 | 0.00 | 5 | |
| 20260901211247 | 78 | 200 | 17.0 | 12.0 | 0.00 | 0.00 | 0.00 | 5 | |
| 20260901210749 | 78 | 195 | 22.0 | 19.0 | 0.00 | 0.00 | 0.00 | 5 | |
| 20260901210251 | 78 | 159 | 19.0 | 16.0 | 0.00 | 0.00 | 0.00 | 5 |